owner,sensor,date,latitude,longitude,vertical_datum,sea_water_temperature,qcFlag 
TABS,ioos:station:wmo:42045:1,2011-11-01T00:00:00Z,26.2168,-96.4998,-2.0,25.8,11111222 
TABS,ioos:station:wmo:42045:1,2011-11-01T00:30:00Z,26.2168,-96.4998,-2.0,25.79,11111222 
TABS,ioos:station:wmo:42045:1,2011-11-01T01:00:00Z,26.2168,-96.4998,-2.0,25.78,11111222 
TABS,ioos:station:wmo:42045:1,2011-11-01T01:30:00Z,26.2168,-96.4998,-2.0,25.78,11111222 
TABS,ioos:station:wmo:42045:1,2011-11-01T02:00:00Z,26.2168,-96.4998,-2.0,25.77,11111222 
TABS,ioos:station:wmo:42045:1,2011-11-01T02:30:00Z,26.2168,-96.4998,-2.0,25.76,11111222 
TABS,ioos:station:wmo:42045:1,2011-11-01T03:00:00Z,26.2168,-96.4998,-2.0,25.76,11111222 
TABS,ioos:station:wmo:42045:1,2011-11-01T03:30:00Z,26.2168,-96.4998,-2.0,25.76,11111222 
TABS,ioos:station:wmo:42045:1,2011-11-01T04:00:00Z,26.2168,-96.4998,-2.0,25.75,11111222 
TABS,ioos:station:wmo:42045:1,2011-11-01T04:30:00Z,26.2168,-96.4998,-2.0,25.75,11111222 
TABS,ioos:station:wmo:42045:1,2011-11-01T05:00:00Z,26.2168,-96.4998,-2.0,25.74,11111222 
TABS,ioos:station:wmo:42045:1,2011-11-01T05:30:00Z,26.2168,-96.4998,-2.0,25.74,11111222 
TABS,ioos:station:wmo:42045:1,2011-11-01T06:00:00Z,26.2168,-96.4998,-2.0,25.73,11111222 
TABS,ioos:station:wmo:42045:1,2011-11-01T06:30:00Z,26.2168,-96.4998,-2.0,25.73,11111222 
TABS,ioos:station:wmo:42045:1,2011-11-01T07:00:00Z,26.2168,-96.4998,-2.0,25.73,11111222 
TABS,ioos:station:wmo:42045:1,2011-11-01T07:30:00Z,26.2168,-96.4998,-2.0,25.72,11111222 
TABS,ioos:station:wmo:42045:1,2011-11-01T08:00:00Z,26.2168,-96.4998,-2.0,25.71,11111222 
TABS,ioos:station:wmo:42045:1,2011-11-01T08:30:00Z,26.2168,-96.4998,-2.0,25.71,11111222 
TABS,ioos:station:wmo:42045:1,2011-11-01T09:00:00Z,26.2168,-96.4998,-2.0,25.71,11111222 
TABS,ioos:station:wmo:42045:1,2011-11-01T09:30:00Z,26.2168,-96.4998,-2.0,25.71,11111222 
TABS,ioos:station:wmo:42045:1,2011-11-01T10:00:00Z,26.2168,-96.4998,-2.0,25.7,11111222 
TABS,ioos:station:wmo:42045:1,2011-11-01T10:30:00Z,26.2168,-96.4998,-2.0,25.69,11111222 
TABS,ioos:station:wmo:42045:1,2011-11-01T11:00:00Z,26.2168,-96.4998,-2.0,25.68,11111222 
TABS,ioos:station:wmo:42045:1,2011-11-01T11:30:00Z,26.2168,-96.4998,-2.0,25.68,11111222 
TABS,ioos:station:wmo:42045:1,2011-11-01T12:00:00Z,26.2168,-96.4998,-2.0,25.68,11111222 
TABS,ioos:station:wmo:42045:1,2011-11-01T12:30:00Z,26.2168,-96.4998,-2.0,25.68,11111222 
TABS,ioos:station:wmo:42045:1,2011-11-01T13:00:00Z,26.2168,-96.4998,-2.0,25.67,11111222 
TABS,ioos:station:wmo:42045:1,2011-11-01T13:30:00Z,26.2168,-96.4998,-2.0,25.68,11111222 
TABS,ioos:station:wmo:42045:1,2011-11-01T14:00:00Z,26.2168,-96.4998,-2.0,25.69,11111222 
TABS,ioos:station:wmo:42045:1,2011-11-01T14:30:00Z,26.2168,-96.4998,-2.0,25.7,11111222 
TABS,ioos:station:wmo:42045:1,2011-11-01T15:00:00Z,26.2168,-96.4998,-2.0,25.71,11111222 
TABS,ioos:station:wmo:42045:1,2011-11-01T15:30:00Z,26.2168,-96.4998,-2.0,25.71,11111222 
TABS,ioos:station:wmo:42045:1,2011-11-01T16:00:00Z,26.2168,-96.4998,-2.0,25.72,11111222 
TABS,ioos:station:wmo:42045:1,2011-11-01T16:30:00Z,26.2168,-96.4998,-2.0,25.74,11111222 
TABS,ioos:station:wmo:42045:1,2011-11-01T17:00:00Z,26.2168,-96.4998,-2.0,25.8,11111222 
TABS,ioos:station:wmo:42045:1,2011-11-01T17:30:00Z,26.2168,-96.4998,-2.0,25.75,11111222 
TABS,ioos:station:wmo:42045:1,2011-11-01T18:00:00Z,26.2168,-96.4998,-2.0,25.76,11111222 
TABS,ioos:station:wmo:42045:1,2011-11-01T18:30:00Z,26.2168,-96.4998,-2.0,25.78,11111222 
TABS,ioos:station:wmo:42045:1,2011-11-01T19:00:00Z,26.2168,-96.4998,-2.0,25.78,11111222 
TABS,ioos:station:wmo:42045:1,2011-11-01T19:30:00Z,26.2168,-96.4998,-2.0,25.81,11111222 
TABS,ioos:station:wmo:42045:1,2011-11-01T20:00:00Z,26.2168,-96.4998,-2.0,25.81,11111222 
TABS,ioos:station:wmo:42045:1,2011-11-01T20:30:00Z,26.2168,-96.4998,-2.0,25.82,11111222 
TABS,ioos:station:wmo:42045:1,2011-11-01T21:00:00Z,26.2168,-96.4998,-2.0,25.83,11111222 
TABS,ioos:station:wmo:42045:1,2011-11-01T21:30:00Z,26.2168,-96.4998,-2.0,25.83,11111222 
TABS,ioos:station:wmo:42045:1,2011-11-01T22:00:00Z,26.2168,-96.4998,-2.0,25.81,11111222 
TABS,ioos:station:wmo:42045:1,2011-11-01T22:30:00Z,26.2168,-96.4998,-2.0,25.79,11111222 
TABS,ioos:station:wmo:42045:1,2011-11-01T23:00:00Z,26.2168,-96.4998,-2.0,25.77,11111222 
TABS,ioos:station:wmo:42045:1,2011-11-01T23:30:00Z,26.2168,-96.4998,-2.0,25.75,11111222 
TABS,ioos:station:wmo:42045:1,2011-11-02T00:00:00Z,26.2168,-96.4998,-2.0,25.73,11111222 
TABS,ioos:station:wmo:42045:1,2011-11-02T00:30:00Z,26.2168,-96.4998,-2.0,25.7,11111222 
TABS,ioos:station:wmo:42045:1,2011-11-02T01:00:00Z,26.2168,-96.4998,-2.0,25.67,11111222 
TABS,ioos:station:wmo:42045:1,2011-11-02T01:30:00Z,26.2168,-96.4998,-2.0,25.59,11111222 
TABS,ioos:station:wmo:42045:1,2011-11-02T02:00:00Z,26.2168,-96.4998,-2.0,25.48,11111222 
TABS,ioos:station:wmo:42045:1,2011-11-02T02:30:00Z,26.2168,-96.4998,-2.0,25.35,11111222 
TABS,ioos:station:wmo:42045:1,2011-11-02T03:00:00Z,26.2168,-96.4998,-2.0,25.25,11111222 
TABS,ioos:station:wmo:42045:1,2011-11-02T03:30:00Z,26.2168,-96.4998,-2.0,25.22,11111222 
TABS,ioos:station:wmo:42045:1,2011-11-02T04:00:00Z,26.2168,-96.4998,-2.0,25.2,11111222 
TABS,ioos:station:wmo:42045:1,2011-11-02T04:30:00Z,26.2168,-96.4998,-2.0,25.19,11111222 
TABS,ioos:station:wmo:42045:1,2011-11-02T05:00:00Z,26.2168,-96.4998,-2.0,25.17,11111222 
TABS,ioos:station:wmo:42045:1,2011-11-02T05:30:00Z,26.2168,-96.4998,-2.0,25.2,11111222 
TABS,ioos:station:wmo:42045:1,2011-11-02T06:00:00Z,26.2168,-96.4998,-2.0,25.21,11111222 
TABS,ioos:station:wmo:42045:1,2011-11-02T06:30:00Z,26.2168,-96.4998,-2.0,25.23,11111222 
TABS,ioos:station:wmo:42045:1,2011-11-02T07:00:00Z,26.2168,-96.4998,-2.0,25.25,11111222 
TABS,ioos:station:wmo:42045:1,2011-11-02T07:30:00Z,26.2168,-96.4998,-2.0,25.26,11111222 
TABS,ioos:station:wmo:42045:1,2011-11-02T08:00:00Z,26.2168,-96.4998,-2.0,25.25,11111222 
TABS,ioos:station:wmo:42045:1,2011-11-02T08:30:00Z,26.2168,-96.4998,-2.0,25.26,11111222 
TABS,ioos:station:wmo:42045:1,2011-11-02T09:00:00Z,26.2168,-96.4998,-2.0,25.24,11111222 
TABS,ioos:station:wmo:42045:1,2011-11-02T09:30:00Z,26.2168,-96.4998,-2.0,25.24,11111222 
TABS,ioos:station:wmo:42045:1,2011-11-02T10:00:00Z,26.2168,-96.4998,-2.0,25.22,11111222 
TABS,ioos:station:wmo:42045:1,2011-11-02T10:30:00Z,26.2168,-96.4998,-2.0,25.21,11111222 
TABS,ioos:station:wmo:42045:1,2011-11-02T11:00:00Z,26.2168,-96.4998,-2.0,25.16,11111222 
TABS,ioos:station:wmo:42045:1,2011-11-02T11:30:00Z,26.2168,-96.4998,-2.0,25.12,11111222 
TABS,ioos:station:wmo:42045:1,2011-11-02T12:00:00Z,26.2168,-96.4998,-2.0,25.11,11111222 
TABS,ioos:station:wmo:42045:1,2011-11-02T12:30:00Z,26.2168,-96.4998,-2.0,25.08,11111222 
TABS,ioos:station:wmo:42045:1,2011-11-02T13:00:00Z,26.2168,-96.4998,-2.0,25.07,11111222 
TABS,ioos:station:wmo:42045:1,2011-11-02T13:30:00Z,26.2168,-96.4998,-2.0,25.06,11111222 
TABS,ioos:station:wmo:42045:1,2011-11-02T14:00:00Z,26.2168,-96.4998,-2.0,25.06,11111222 
TABS,ioos:station:wmo:42045:1,2011-11-02T14:30:00Z,26.2168,-96.4998,-2.0,25.06,11111222 
TABS,ioos:station:wmo:42045:1,2011-11-02T15:00:00Z,26.2168,-96.4998,-2.0,25.05,11111222 
TABS,ioos:station:wmo:42045:1,2011-11-02T15:30:00Z,26.2168,-96.4998,-2.0,25.06,11111222 
TABS,ioos:station:wmo:42045:1,2011-11-02T17:00:00Z,26.2168,-96.4998,-2.0,25.12,11111222 
TABS,ioos:station:wmo:42045:1,2011-11-02T17:30:00Z,26.2168,-96.4998,-2.0,25.14,11111222 
TABS,ioos:station:wmo:42045:1,2011-11-02T18:00:00Z,26.2168,-96.4998,-2.0,25.16,11111222 
TABS,ioos:station:wmo:42045:1,2011-11-02T18:30:00Z,26.2168,-96.4998,-2.0,25.17,11111222 
TABS,ioos:station:wmo:42045:1,2011-11-02T19:00:00Z,26.2168,-96.4998,-2.0,25.21,11111222 
TABS,ioos:station:wmo:42045:1,2011-11-02T19:30:00Z,26.2168,-96.4998,-2.0,25.22,11111222 
TABS,ioos:station:wmo:42045:1,2011-11-02T20:00:00Z,26.2168,-96.4998,-2.0,25.23,11111222 
TABS,ioos:station:wmo:42045:1,2011-11-02T20:30:00Z,26.2168,-96.4998,-2.0,25.24,11111222 
TABS,ioos:station:wmo:42045:1,2011-11-02T21:00:00Z,26.2168,-96.4998,-2.0,25.24,11111222 
TABS,ioos:station:wmo:42045:1,2011-11-02T21:30:00Z,26.2168,-96.4998,-2.0,25.24,11111222 
TABS,ioos:station:wmo:42045:1,2011-11-02T22:00:00Z,26.2168,-96.4998,-2.0,25.29,11111222 
TABS,ioos:station:wmo:42045:1,2011-11-02T22:30:00Z,26.2168,-96.4998,-2.0,25.35,11111222 
TABS,ioos:station:wmo:42045:1,2011-11-02T23:00:00Z,26.2168,-96.4998,-2.0,25.36,11111222 
TABS,ioos:station:wmo:42045:1,2011-11-02T23:30:00Z,26.2168,-96.4998,-2.0,25.36,11111222 
TABS,ioos:station:wmo:42045:1,2011-11-03T00:00:00Z,26.2168,-96.4998,-2.0,25.36,11111222 
TABS,ioos:station:wmo:42045:1,2011-11-03T00:30:00Z,26.2168,-96.4998,-2.0,25.38,11111222 
TABS,ioos:station:wmo:42045:1,2011-11-03T01:00:00Z,26.2168,-96.4998,-2.0,25.39,11111222 
TABS,ioos:station:wmo:42045:1,2011-11-03T01:30:00Z,26.2168,-96.4998,-2.0,25.41,11111222 
TABS,ioos:station:wmo:42045:1,2011-11-03T02:00:00Z,26.2168,-96.4998,-2.0,25.41,11111222 
TABS,ioos:station:wmo:42045:1,2011-11-03T02:30:00Z,26.2168,-96.4998,-2.0,25.41,11111222 
TABS,ioos:station:wmo:42045:1,2011-11-03T03:00:00Z,26.2168,-96.4998,-2.0,25.4,11111222 
TABS,ioos:station:wmo:42045:1,2011-11-03T03:30:00Z,26.2168,-96.4998,-2.0,25.4,11111222 
TABS,ioos:station:wmo:42045:1,2011-11-03T04:00:00Z,26.2168,-96.4998,-2.0,25.4,11111222 
TABS,ioos:station:wmo:42045:1,2011-11-03T04:30:00Z,26.2168,-96.4998,-2.0,25.39,11111222 
TABS,ioos:station:wmo:42045:1,2011-11-03T05:00:00Z,26.2168,-96.4998,-2.0,25.36,11111222 
TABS,ioos:station:wmo:42045:1,2011-11-03T05:30:00Z,26.2168,-96.4998,-2.0,25.35,11111222 
TABS,ioos:station:wmo:42045:1,2011-11-03T06:00:00Z,26.2168,-96.4998,-2.0,25.32,11111222 
TABS,ioos:station:wmo:42045:1,2011-11-03T06:30:00Z,26.2168,-96.4998,-2.0,25.29,11111222 
TABS,ioos:station:wmo:42045:1,2011-11-03T07:00:00Z,26.2168,-96.4998,-2.0,25.25,11111222 
TABS,ioos:station:wmo:42045:1,2011-11-03T07:30:00Z,26.2168,-96.4998,-2.0,25.21,11111222 
TABS,ioos:station:wmo:42045:1,2011-11-03T08:00:00Z,26.2168,-96.4998,-2.0,25.17,11111222 
TABS,ioos:station:wmo:42045:1,2011-11-03T08:30:00Z,26.2168,-96.4998,-2.0,25.15,11111222 
TABS,ioos:station:wmo:42045:1,2011-11-03T09:00:00Z,26.2168,-96.4998,-2.0,25.12,11111222 
TABS,ioos:station:wmo:42045:1,2011-11-03T09:30:00Z,26.2168,-96.4998,-2.0,25.1,11111222 
TABS,ioos:station:wmo:42045:1,2011-11-03T10:00:00Z,26.2168,-96.4998,-2.0,25.08,11111222 
TABS,ioos:station:wmo:42045:1,2011-11-03T10:30:00Z,26.2168,-96.4998,-2.0,25.06,11111222 
TABS,ioos:station:wmo:42045:1,2011-11-03T11:00:00Z,26.2168,-96.4998,-2.0,25.06,11111222 
TABS,ioos:station:wmo:42045:1,2011-11-03T11:30:00Z,26.2168,-96.4998,-2.0,25.05,11111222 
TABS,ioos:station:wmo:42045:1,2011-11-03T12:00:00Z,26.2168,-96.4998,-2.0,25.03,11111222 
TABS,ioos:station:wmo:42045:1,2011-11-03T12:30:00Z,26.2168,-96.4998,-2.0,25.03,11111222 
TABS,ioos:station:wmo:42045:1,2011-11-03T13:00:00Z,26.2168,-96.4998,-2.0,25.0,11111222 
TABS,ioos:station:wmo:42045:1,2011-11-03T13:30:00Z,26.2168,-96.4998,-2.0,24.98,11111222 
TABS,ioos:station:wmo:42045:1,2011-11-03T14:00:00Z,26.2168,-96.4998,-2.0,24.97,11111222 
TABS,ioos:station:wmo:42045:1,2011-11-03T14:30:00Z,26.2168,-96.4998,-2.0,24.96,11111222 
TABS,ioos:station:wmo:42045:1,2011-11-03T15:00:00Z,26.2168,-96.4998,-2.0,24.95,11111222 
TABS,ioos:station:wmo:42045:1,2011-11-03T15:30:00Z,26.2168,-96.4998,-2.0,24.93,11111222 
TABS,ioos:station:wmo:42045:1,2011-11-03T16:00:00Z,26.2168,-96.4998,-2.0,24.92,11111222 
TABS,ioos:station:wmo:42045:1,2011-11-03T16:30:00Z,26.2168,-96.4998,-2.0,24.91,11111222 
TABS,ioos:station:wmo:42045:1,2011-11-03T17:00:00Z,26.2168,-96.4998,-2.0,24.9,11111222 
TABS,ioos:station:wmo:42045:1,2011-11-03T17:30:00Z,26.2168,-96.4998,-2.0,24.9,11111222 
TABS,ioos:station:wmo:42045:1,2011-11-03T18:00:00Z,26.2168,-96.4998,-2.0,24.9,11111222 
TABS,ioos:station:wmo:42045:1,2011-11-03T18:30:00Z,26.2168,-96.4998,-2.0,24.89,11111222 
TABS,ioos:station:wmo:42045:1,2011-11-03T19:00:00Z,26.2168,-96.4998,-2.0,24.89,11111222 
TABS,ioos:station:wmo:42045:1,2011-11-03T19:30:00Z,26.2168,-96.4998,-2.0,24.89,11111222 
TABS,ioos:station:wmo:42045:1,2011-11-03T20:00:00Z,26.2168,-96.4998,-2.0,24.88,11111222 
TABS,ioos:station:wmo:42045:1,2011-11-03T20:30:00Z,26.2168,-96.4998,-2.0,24.87,11111222 
TABS,ioos:station:wmo:42045:1,2011-11-03T21:00:00Z,26.2168,-96.4998,-2.0,24.88,11111222 
TABS,ioos:station:wmo:42045:1,2011-11-03T21:30:00Z,26.2168,-96.4998,-2.0,24.87,11111222 
TABS,ioos:station:wmo:42045:1,2011-11-03T22:00:00Z,26.2168,-96.4998,-2.0,24.87,11111222 
TABS,ioos:station:wmo:42045:1,2011-11-03T22:30:00Z,26.2168,-96.4998,-2.0,24.86,11111222 
TABS,ioos:station:wmo:42045:1,2011-11-03T23:00:00Z,26.2168,-96.4998,-2.0,24.86,11111222 
TABS,ioos:station:wmo:42045:1,2011-11-03T23:30:00Z,26.2168,-96.4998,-2.0,24.86,11111222 
TABS,ioos:station:wmo:42045:1,2011-11-04T00:00:00Z,26.2168,-96.4998,-2.0,24.86,11111222 
TABS,ioos:station:wmo:42045:1,2011-11-04T00:30:00Z,26.2168,-96.4998,-2.0,24.85,11111222 
TABS,ioos:station:wmo:42045:1,2011-11-04T01:00:00Z,26.2168,-96.4998,-2.0,24.85,11111222 
TABS,ioos:station:wmo:42045:1,2011-11-04T01:30:00Z,26.2168,-96.4998,-2.0,24.85,11111222 
TABS,ioos:station:wmo:42045:1,2011-11-04T02:00:00Z,26.2168,-96.4998,-2.0,24.84,11111222 
TABS,ioos:station:wmo:42045:1,2011-11-04T02:30:00Z,26.2168,-96.4998,-2.0,24.84,11111222 
TABS,ioos:station:wmo:42045:1,2011-11-04T03:00:00Z,26.2168,-96.4998,-2.0,24.82,11111222 
TABS,ioos:station:wmo:42045:1,2011-11-04T03:30:00Z,26.2168,-96.4998,-2.0,24.82,11111222 
TABS,ioos:station:wmo:42045:1,2011-11-04T04:00:00Z,26.2168,-96.4998,-2.0,24.81,11111222 
TABS,ioos:station:wmo:42045:1,2011-11-04T04:30:00Z,26.2168,-96.4998,-2.0,24.81,11111222 
TABS,ioos:station:wmo:42045:1,2011-11-04T05:00:00Z,26.2168,-96.4998,-2.0,24.78,11111222 
TABS,ioos:station:wmo:42045:1,2011-11-04T05:30:00Z,26.2168,-96.4998,-2.0,24.8,11111222 
TABS,ioos:station:wmo:42045:1,2011-11-04T06:00:00Z,26.2168,-96.4998,-2.0,24.79,11111222 
TABS,ioos:station:wmo:42045:1,2011-11-04T06:30:00Z,26.2168,-96.4998,-2.0,24.78,11111222 
TABS,ioos:station:wmo:42045:1,2011-11-04T07:00:00Z,26.2168,-96.4998,-2.0,24.78,11111222 
TABS,ioos:station:wmo:42045:1,2011-11-04T07:30:00Z,26.2168,-96.4998,-2.0,24.79,11111222 
TABS,ioos:station:wmo:42045:1,2011-11-04T08:00:00Z,26.2168,-96.4998,-2.0,24.77,11111222 
TABS,ioos:station:wmo:42045:1,2011-11-04T08:30:00Z,26.2168,-96.4998,-2.0,24.78,11111222 
TABS,ioos:station:wmo:42045:1,2011-11-04T09:00:00Z,26.2168,-96.4998,-2.0,24.78,11111222 
TABS,ioos:station:wmo:42045:1,2011-11-04T09:30:00Z,26.2168,-96.4998,-2.0,24.77,11111222 
TABS,ioos:station:wmo:42045:1,2011-11-04T10:00:00Z,26.2168,-96.4998,-2.0,24.76,11111222 
TABS,ioos:station:wmo:42045:1,2011-11-04T10:30:00Z,26.2168,-96.4998,-2.0,24.75,11111222 
TABS,ioos:station:wmo:42045:1,2011-11-04T11:00:00Z,26.2168,-96.4998,-2.0,24.75,11111222 
TABS,ioos:station:wmo:42045:1,2011-11-04T11:30:00Z,26.2168,-96.4998,-2.0,24.75,11111222 
TABS,ioos:station:wmo:42045:1,2011-11-04T12:00:00Z,26.2168,-96.4998,-2.0,24.74,11111222 
TABS,ioos:station:wmo:42045:1,2011-11-04T12:30:00Z,26.2168,-96.4998,-2.0,24.73,11111222 
TABS,ioos:station:wmo:42045:1,2011-11-04T13:00:00Z,26.2168,-96.4998,-2.0,24.73,11111222 
TABS,ioos:station:wmo:42045:1,2011-11-04T13:30:00Z,26.2168,-96.4998,-2.0,24.73,11111222 
TABS,ioos:station:wmo:42045:1,2011-11-04T14:00:00Z,26.2168,-96.4998,-2.0,24.73,11111222 
TABS,ioos:station:wmo:42045:1,2011-11-04T14:30:00Z,26.2168,-96.4998,-2.0,24.72,11111222 
TABS,ioos:station:wmo:42045:1,2011-11-04T15:00:00Z,26.2168,-96.4998,-2.0,24.73,11111222 
TABS,ioos:station:wmo:42045:1,2011-11-04T15:30:00Z,26.2168,-96.4998,-2.0,24.73,11111222 
TABS,ioos:station:wmo:42045:1,2011-11-04T16:00:00Z,26.2168,-96.4998,-2.0,24.72,11111222 
TABS,ioos:station:wmo:42045:1,2011-11-04T16:30:00Z,26.2168,-96.4998,-2.0,24.72,11111222 
TABS,ioos:station:wmo:42045:1,2011-11-04T17:00:00Z,26.2168,-96.4998,-2.0,24.71,11111222 
TABS,ioos:station:wmo:42045:1,2011-11-04T17:30:00Z,26.2168,-96.4998,-2.0,24.72,11111222 
TABS,ioos:station:wmo:42045:1,2011-11-04T18:00:00Z,26.2168,-96.4998,-2.0,24.72,11111222 
TABS,ioos:station:wmo:42045:1,2011-11-04T18:30:00Z,26.2168,-96.4998,-2.0,24.73,11111222 
TABS,ioos:station:wmo:42045:1,2011-11-04T19:00:00Z,26.2168,-96.4998,-2.0,24.74,11111222 
TABS,ioos:station:wmo:42045:1,2011-11-04T19:30:00Z,26.2168,-96.4998,-2.0,24.74,11111222 
TABS,ioos:station:wmo:42045:1,2011-11-04T20:00:00Z,26.2168,-96.4998,-2.0,24.74,11111222 
TABS,ioos:station:wmo:42045:1,2011-11-04T20:30:00Z,26.2168,-96.4998,-2.0,24.74,11111222 
TABS,ioos:station:wmo:42045:1,2011-11-04T21:00:00Z,26.2168,-96.4998,-2.0,24.73,11111222 
TABS,ioos:station:wmo:42045:1,2011-11-04T21:30:00Z,26.2168,-96.4998,-2.0,24.73,11111222 
TABS,ioos:station:wmo:42045:1,2011-11-04T22:00:00Z,26.2168,-96.4998,-2.0,24.73,11111222 
TABS,ioos:station:wmo:42045:1,2011-11-04T22:30:00Z,26.2168,-96.4998,-2.0,24.72,11111222 
TABS,ioos:station:wmo:42045:1,2011-11-04T23:00:00Z,26.2168,-96.4998,-2.0,24.72,11111222 
TABS,ioos:station:wmo:42045:1,2011-11-04T23:30:00Z,26.2168,-96.4998,-2.0,24.71,11111222 
TABS,ioos:station:wmo:42045:1,2011-11-05T00:00:00Z,26.2168,-96.4998,-2.0,24.7,11111222 
TABS,ioos:station:wmo:42045:1,2011-11-05T00:30:00Z,26.2168,-96.4998,-2.0,24.7,11111222 
TABS,ioos:station:wmo:42045:1,2011-11-05T01:00:00Z,26.2168,-96.4998,-2.0,24.7,11111222 
TABS,ioos:station:wmo:42045:1,2011-11-05T01:30:00Z,26.2168,-96.4998,-2.0,24.69,11111222 
TABS,ioos:station:wmo:42045:1,2011-11-05T02:00:00Z,26.2168,-96.4998,-2.0,24.71,11111222 
TABS,ioos:station:wmo:42045:1,2011-11-05T02:30:00Z,26.2168,-96.4998,-2.0,24.73,11111222 
TABS,ioos:station:wmo:42045:1,2011-11-05T03:00:00Z,26.2168,-96.4998,-2.0,24.74,11111222 
TABS,ioos:station:wmo:42045:1,2011-11-05T03:30:00Z,26.2168,-96.4998,-2.0,24.73,11111222 
TABS,ioos:station:wmo:42045:1,2011-11-05T04:00:00Z,26.2168,-96.4998,-2.0,24.74,11111222 
TABS,ioos:station:wmo:42045:1,2011-11-05T04:30:00Z,26.2168,-96.4998,-2.0,24.73,11111222 
TABS,ioos:station:wmo:42045:1,2011-11-05T05:00:00Z,26.2168,-96.4998,-2.0,24.73,11111222 
TABS,ioos:station:wmo:42045:1,2011-11-05T05:30:00Z,26.2168,-96.4998,-2.0,24.77,11111222 
TABS,ioos:station:wmo:42045:1,2011-11-05T06:00:00Z,26.2168,-96.4998,-2.0,24.81,11111222 
TABS,ioos:station:wmo:42045:1,2011-11-05T06:30:00Z,26.2168,-96.4998,-2.0,24.79,11111222 
TABS,ioos:station:wmo:42045:1,2011-11-05T07:00:00Z,26.2168,-96.4998,-2.0,24.79,11111222 
TABS,ioos:station:wmo:42045:1,2011-11-05T07:30:00Z,26.2168,-96.4998,-2.0,24.79,11111222 
TABS,ioos:station:wmo:42045:1,2011-11-05T08:00:00Z,26.2168,-96.4998,-2.0,24.79,11111222 
TABS,ioos:station:wmo:42045:1,2011-11-05T08:30:00Z,26.2168,-96.4998,-2.0,24.78,11111222 
TABS,ioos:station:wmo:42045:1,2011-11-05T09:00:00Z,26.2168,-96.4998,-2.0,24.77,11111222 
TABS,ioos:station:wmo:42045:1,2011-11-05T09:30:00Z,26.2168,-96.4998,-2.0,24.77,11111222 
TABS,ioos:station:wmo:42045:1,2011-11-05T10:00:00Z,26.2168,-96.4998,-2.0,24.76,11111222 
TABS,ioos:station:wmo:42045:1,2011-11-05T10:30:00Z,26.2168,-96.4998,-2.0,24.75,11111222 
TABS,ioos:station:wmo:42045:1,2011-11-05T11:00:00Z,26.2168,-96.4998,-2.0,24.76,11111222 
TABS,ioos:station:wmo:42045:1,2011-11-05T11:30:00Z,26.2168,-96.4998,-2.0,24.76,11111222 
TABS,ioos:station:wmo:42045:1,2011-11-05T12:00:00Z,26.2168,-96.4998,-2.0,24.76,11111222 
TABS,ioos:station:wmo:42045:1,2011-11-05T12:30:00Z,26.2168,-96.4998,-2.0,24.78,11111222 
TABS,ioos:station:wmo:42045:1,2011-11-05T13:00:00Z,26.2168,-96.4998,-2.0,24.82,11111222 
TABS,ioos:station:wmo:42045:1,2011-11-05T13:30:00Z,26.2168,-96.4998,-2.0,24.86,11111222 
TABS,ioos:station:wmo:42045:1,2011-11-05T14:00:00Z,26.2168,-96.4998,-2.0,24.89,11111222 
TABS,ioos:station:wmo:42045:1,2011-11-05T17:00:00Z,26.2168,-96.4998,-2.0,25.01,11111222 
TABS,ioos:station:wmo:42045:1,2011-11-05T17:30:00Z,26.2168,-96.4998,-2.0,25.0,11111222 
TABS,ioos:station:wmo:42045:1,2011-11-05T18:00:00Z,26.2168,-96.4998,-2.0,25.01,11111222 
TABS,ioos:station:wmo:42045:1,2011-11-05T18:30:00Z,26.2168,-96.4998,-2.0,25.01,11111222 
TABS,ioos:station:wmo:42045:1,2011-11-05T19:00:00Z,26.2168,-96.4998,-2.0,25.02,11111222 
TABS,ioos:station:wmo:42045:1,2011-11-05T19:30:00Z,26.2168,-96.4998,-2.0,25.01,11111222 
TABS,ioos:station:wmo:42045:1,2011-11-05T20:00:00Z,26.2168,-96.4998,-2.0,24.98,11111222 
TABS,ioos:station:wmo:42045:1,2011-11-05T20:30:00Z,26.2168,-96.4998,-2.0,24.96,11111222 
TABS,ioos:station:wmo:42045:1,2011-11-05T21:00:00Z,26.2168,-96.4998,-2.0,24.94,11111222 
TABS,ioos:station:wmo:42045:1,2011-11-05T21:30:00Z,26.2168,-96.4998,-2.0,24.92,11111222 
TABS,ioos:station:wmo:42045:1,2011-11-05T22:00:00Z,26.2168,-96.4998,-2.0,24.91,11111222 
TABS,ioos:station:wmo:42045:1,2011-11-05T22:30:00Z,26.2168,-96.4998,-2.0,24.88,11111222 
TABS,ioos:station:wmo:42045:1,2011-11-05T23:00:00Z,26.2168,-96.4998,-2.0,24.88,11111222 
TABS,ioos:station:wmo:42045:1,2011-11-05T23:30:00Z,26.2168,-96.4998,-2.0,24.87,11111222 
TABS,ioos:station:wmo:42045:1,2011-11-06T00:00:00Z,26.2168,-96.4998,-2.0,24.88,11111222 
TABS,ioos:station:wmo:42045:1,2011-11-06T00:30:00Z,26.2168,-96.4998,-2.0,24.89,11111222 
TABS,ioos:station:wmo:42045:1,2011-11-06T01:00:00Z,26.2168,-96.4998,-2.0,24.9,11111222 
TABS,ioos:station:wmo:42045:1,2011-11-06T01:30:00Z,26.2168,-96.4998,-2.0,24.92,11111222 
TABS,ioos:station:wmo:42045:1,2011-11-06T02:00:00Z,26.2168,-96.4998,-2.0,24.91,11111222 
TABS,ioos:station:wmo:42045:1,2011-11-06T02:30:00Z,26.2168,-96.4998,-2.0,24.91,11111222 
TABS,ioos:station:wmo:42045:1,2011-11-06T03:00:00Z,26.2168,-96.4998,-2.0,24.9,11111222 
TABS,ioos:station:wmo:42045:1,2011-11-06T03:30:00Z,26.2168,-96.4998,-2.0,24.91,11111222 
TABS,ioos:station:wmo:42045:1,2011-11-06T04:00:00Z,26.2168,-96.4998,-2.0,24.91,11111222 
TABS,ioos:station:wmo:42045:1,2011-11-06T04:30:00Z,26.2168,-96.4998,-2.0,24.9,11111222 
TABS,ioos:station:wmo:42045:1,2011-11-06T05:00:00Z,26.2168,-96.4998,-2.0,24.9,11111222 
TABS,ioos:station:wmo:42045:1,2011-11-06T05:30:00Z,26.2168,-96.4998,-2.0,24.9,11111222 
TABS,ioos:station:wmo:42045:1,2011-11-06T06:00:00Z,26.2168,-96.4998,-2.0,24.9,11111222 
TABS,ioos:station:wmo:42045:1,2011-11-06T06:30:00Z,26.2168,-96.4998,-2.0,24.9,11111222 
TABS,ioos:station:wmo:42045:1,2011-11-06T07:00:00Z,26.2168,-96.4998,-2.0,24.91,11111222 
TABS,ioos:station:wmo:42045:1,2011-11-06T07:30:00Z,26.2168,-96.4998,-2.0,24.92,11111222 
TABS,ioos:station:wmo:42045:1,2011-11-06T08:00:00Z,26.2168,-96.4998,-2.0,24.92,11111222 
TABS,ioos:station:wmo:42045:1,2011-11-06T08:30:00Z,26.2168,-96.4998,-2.0,24.93,11111222 
TABS,ioos:station:wmo:42045:1,2011-11-06T09:00:00Z,26.2168,-96.4998,-2.0,24.92,11111222 
TABS,ioos:station:wmo:42045:1,2011-11-06T09:30:00Z,26.2168,-96.4998,-2.0,24.93,11111222 
TABS,ioos:station:wmo:42045:1,2011-11-06T10:00:00Z,26.2168,-96.4998,-2.0,24.92,11111222 
TABS,ioos:station:wmo:42045:1,2011-11-06T10:30:00Z,26.2168,-96.4998,-2.0,24.93,11111222 
TABS,ioos:station:wmo:42045:1,2011-11-06T11:00:00Z,26.2168,-96.4998,-2.0,24.93,11111222 
TABS,ioos:station:wmo:42045:1,2011-11-06T11:30:00Z,26.2168,-96.4998,-2.0,24.94,11111222 
TABS,ioos:station:wmo:42045:1,2011-11-06T12:00:00Z,26.2168,-96.4998,-2.0,24.94,11111222 
TABS,ioos:station:wmo:42045:1,2011-11-06T12:30:00Z,26.2168,-96.4998,-2.0,24.95,11111222 
TABS,ioos:station:wmo:42045:1,2011-11-06T13:00:00Z,26.2168,-96.4998,-2.0,24.95,11111222 
TABS,ioos:station:wmo:42045:1,2011-11-06T13:30:00Z,26.2168,-96.4998,-2.0,24.96,11111222 
TABS,ioos:station:wmo:42045:1,2011-11-06T14:00:00Z,26.2168,-96.4998,-2.0,24.97,11111222 
TABS,ioos:station:wmo:42045:1,2011-11-06T14:30:00Z,26.2168,-96.4998,-2.0,24.98,11111222 
TABS,ioos:station:wmo:42045:1,2011-11-06T15:00:00Z,26.2168,-96.4998,-2.0,25.01,11111222 
TABS,ioos:station:wmo:42045:1,2011-11-06T15:30:00Z,26.2168,-96.4998,-2.0,25.04,11111222 
TABS,ioos:station:wmo:42045:1,2011-11-06T16:00:00Z,26.2168,-96.4998,-2.0,25.08,11111222 
TABS,ioos:station:wmo:42045:1,2011-11-06T16:30:00Z,26.2168,-96.4998,-2.0,25.12,11111222 
TABS,ioos:station:wmo:42045:1,2011-11-06T17:00:00Z,26.2168,-96.4998,-2.0,25.15,11111222 
TABS,ioos:station:wmo:42045:1,2011-11-06T17:30:00Z,26.2168,-96.4998,-2.0,25.18,11111222 